Weather History for KPSX - February, 2013

Change the Weather History Date:

Monday, February 25, 2013

  Actual Average Record
Temperature  
Mean Temperature 64 °F -  
Max Temperature 75 °F 68 °F 81 °F (2011)
Min Temperature 52 °F 49 °F 26 °F (1974)
Degree Days  
Heating Degree Days 1    
Growing Degree Days 14 (Base 50)    
Moisture  
Dew Point 49 °F    
Average Humidity 63    
Maximum Humidity 96    
Minimum Humidity 10    
Precipitation  
Precipitation 0.00 in - - ()
Sea Level Pressure  
Sea Level Pressure 29.64 in    
Wind  
Wind Speed 14 mph (West)    
Max Wind Speed 34 mph    
Max Gust Speed 50 mph    
Visibility 6 miles    
Events Fog , Rain    
Averages and records for this station are not official NWS values.
T = Trace of Precipitation, MM = Missing Value Source: NWS Daily Summary

Daily Weather History Graph

Daily Weather History Graph

Search for Another Location

Airport or City:

Trip Planner

Search our weather history database for the weather conditions in past years. The results will help you decide how hot, cold, wet, or windy it might be!

Date:

Astronomy

Feb. 25, 2013 Rise Set
Actual Time 6:53 AM CST 6:22 PM CST
Civil Twilight 6:30 AM CST 6:46 PM CST
Nautical Twilight 6:02 AM CST 7:13 PM CST
Astronomical Twilight 5:35 AM CST 7:41 PM CST
Moon 6:31 PM CST (2/25) 6:27 AM CST (2/25)
Length of Visible Light 12h 16m
Length of Day
11h 28m
Full, 100% of the Moon is Illuminated
Feb 25
Full
Feb 25
Full
Mar 4
Last Quarter
Mar 11
New
Mar 19
First Quarter

Hourly Weather History & Observations

Time (CST) Temp. Dew Point Humidity Pressure Visibility Wind Dir Wind Speed Gust Speed Precip Events Conditions
12:06 AM 64.4 °F 60.8 °F 88% 29.64 in 6.0 mi East 12.7 mph - N/A   Overcast
1:35 AM 64.4 °F 62.6 °F 94% 29.60 in 2.5 mi ESE 12.7 mph - N/A   Overcast
1:53 AM 64.0 °F 62.1 °F 93% 29.60 in 4.0 mi ESE 8.1 mph - N/A   Overcast
2:27 AM 64.4 °F 62.6 °F 94% 29.59 in 5.0 mi East 9.2 mph - N/A   Overcast
2:45 AM 64.4 °F 62.6 °F 94% 29.58 in 6.0 mi ESE 11.5 mph - N/A   Overcast
2:53 AM 64.9 °F 62.1 °F 90% 29.57 in 6.0 mi ESE 9.2 mph - N/A   Overcast
3:08 AM 64.4 °F 62.6 °F 94% 29.57 in 6.0 mi SE 9.2 mph - N/A   Overcast
3:53 AM 66.9 °F 64.0 °F 90% 29.55 in 5.0 mi SE 9.2 mph - N/A   Overcast
4:00 AM 66.2 °F 64.4 °F 94% 29.56 in 5.0 mi SE 9.2 mph - N/A   Overcast
4:53 AM 68.0 °F 66.0 °F 93% 29.56 in 2.0 mi SSE 5.8 mph - N/A   Overcast
5:02 AM 68.0 °F 66.2 °F 94% 29.56 in 1.0 mi SSE 5.8 mph - N/A   Overcast
5:10 AM 68.0 °F 66.2 °F 94% 29.56 in 0.5 mi SSE 6.9 mph - N/A Fog Fog
5:53 AM 68.0 °F 66.0 °F 93% 29.56 in 0.2 mi SSE 6.9 mph - N/A Fog Fog
6:53 AM 66.9 °F 64.9 °F 93% 29.57 in 0.2 mi SSE 5.8 mph - N/A Fog Fog
7:51 AM 68.0 °F 66.2 °F 94% 29.61 in 1.2 mi WSW 10.4 mph - 0.00 in Rain Light Rain
7:53 AM 68.0 °F 66.9 °F 96% 29.61 in 1.2 mi WSW 10.4 mph - 0.00 in Rain Light Rain
8:02 AM 69.8 °F 66.2 °F 88% 29.61 in 2.0 mi WSW 6.9 mph - 0.00 in   Overcast
8:51 AM 69.8 °F 66.2 °F 88% 29.61 in 2.5 mi West 10.4 mph - 0.00 in   Overcast
8:53 AM 70.0 °F 66.9 °F 90% 29.61 in 2.5 mi West 10.4 mph - 0.00 in   Overcast
9:03 AM 69.8 °F 66.2 °F 88% 29.61 in 3.0 mi West 12.7 mph 17.3 mph N/A   Mostly Cloudy
9:11 AM 71.6 °F 66.2 °F 83% 29.61 in 4.0 mi West 13.8 mph - N/A   Haze
9:32 AM 66.2 °F 57.2 °F 73% 29.64 in 10.0 mi NW 25.3 mph 36.8 mph N/A   Mostly Cloudy
9:40 AM 66.2 °F 55.4 °F 68% 29.64 in 10.0 mi NW 23.0 mph 34.5 mph N/A   Mostly Cloudy
9:53 AM 69.1 °F 51.1 °F 53% 29.65 in 10.0 mi NW 23.0 mph 34.5 mph N/A   Mostly Cloudy
10:53 AM 73.0 °F 36.0 °F 26% 29.66 in 10.0 mi NW 23.0 mph 33.4 mph N/A   Partly Cloudy
11:53 AM 75.2 °F 35.6 °F 24% 29.65 in 10.0 mi WNW 21.9 mph 34.5 mph N/A   Partly Cloudy
12:53 PM 75.9 °F 25.0 °F 15% 29.65 in 10.0 mi WNW 27.6 mph 36.8 mph N/A   Unknown
1:53 PM 75.9 °F 16.0 °F 10% 29.62 in 7.0 mi West 28.8 mph 41.4 mph N/A   Partly Cloudy
2:20 PM 75.2 °F 15.8 °F 11% 29.61 in 8.0 mi West 32.2 mph 49.5 mph N/A   Mostly Cloudy
2:30 PM 73.4 °F 17.6 °F 12% 29.61 in 8.0 mi West 25.3 mph 41.4 mph N/A   Scattered Clouds
2:53 PM 73.9 °F 19.9 °F 13% 29.62 in 8.0 mi WNW 31.1 mph 43.7 mph N/A   Mostly Cloudy
3:53 PM 71.1 °F 24.1 °F 17% 29.63 in 8.0 mi WNW 34.5 mph 46.0 mph N/A   Mostly Cloudy
4:53 PM 66.9 °F 24.1 °F 20% 29.67 in 6.0 mi West 26.5 mph 44.9 mph N/A   Haze
5:53 PM 64.0 °F 24.1 °F 22% 29.69 in 10.0 mi West 27.6 mph 41.4 mph N/A   Partly Cloudy
7:53 PM 60.1 °F 26.1 °F 27% 29.76 in 10.0 mi WNW 23.0 mph 33.4 mph N/A   Clear
8:53 PM 57.0 °F 28.0 °F 33% 29.81 in 10.0 mi WNW 23.0 mph 32.2 mph N/A   Clear
9:53 PM 55.0 °F 28.0 °F 35% 29.83 in 10.0 mi WNW 24.2 mph 35.7 mph N/A   Clear
10:53 PM 53.1 °F 30.0 °F 41% 29.85 in 10.0 mi WNW 20.7 mph 28.8 mph N/A   Clear
11:53 PM 52.0 °F 30.0 °F 43% 29.84 in 10.0 mi WNW 18.4 mph 27.6 mph N/A   Clear